Crane Lake, MN

7:33 AM CST on December 13, 2019 (GMT -0600)
Crane Lake

Weather History for KCDD - September, 2019

Change the Weather History Date:

Friday, September 20, 2019

  Actual Average Record
Temperature  
Mean Temperature 60 °F -  
Max Temperature 77 °F 61 °F 78 °F (2005)
Min Temperature 42 °F 42 °F 30 °F (2006)
Degree Days  
Heating Degree Days 6    
Growing Degree Days 10 (Base 50)    
Moisture  
Dew Point 57 °F    
Average Humidity 88    
Maximum Humidity 100    
Minimum Humidity 65    
Precipitation  
Precipitation 0.00 in - - ()
Sea Level Pressure  
Sea Level Pressure 30.05 in    
Wind  
Wind Speed 1 mph (SSE)    
Max Wind Speed 9 mph    
Max Gust Speed 16 mph    
Visibility 9 miles    
Events Fog    
Averages and records for this station are not official NWS values.
T = Trace of Precipitation, MM = Missing Value Source: NWS Daily Summary

Daily Weather History Graph

Daily Weather History Graph

Search for Another Location

Airport or City:

Astronomy

Sep. 20, 2019 Rise Set
Actual Time 6:53 AM CDT 7:12 PM CDT
Civil Twilight 6:22 AM CDT 7:43 PM CDT
Nautical Twilight 5:45 AM CDT 8:20 PM CDT
Astronomical Twilight 5:07 AM CDT 8:58 PM CDT
Moon 10:34 PM CDT (9/20) 1:25 PM CDT (9/20)
Length of Visible Light 13h 21m
Length of Day
12h 18m
Waning Gibbous, 65% of the Moon is Illuminated
Sep 20
Waning Gibbous
Sep 21
Last Quarter
Sep 28
New
Oct 5
First Quarter
Oct 13
Full

Hourly Weather History & Observations

Time (CDT) Temp. Dew Point Humidity Pressure Visibility Wind Dir Wind Speed Gust Speed Precip Events Conditions
12:04 AM 48.2 °F 48.2 °F 100% 30.11 in 10.0 mi Calm Calm - N/A   Clear
12:24 AM 48.2 °F 48.2 °F 100% 30.12 in 10.0 mi Calm Calm - N/A   Clear
12:43 AM 46.4 °F 46.4 °F 100% 30.12 in 10.0 mi Calm Calm - N/A   Clear
1:03 AM 46.4 °F 46.4 °F 100% 30.12 in 10.0 mi Calm Calm - N/A   Clear
1:23 AM 46.4 °F 46.4 °F 100% 30.12 in 10.0 mi Calm Calm - N/A   Scattered Clouds
1:44 AM 46.4 °F 46.4 °F 100% 30.12 in 5.0 mi Calm Calm - N/A   Mostly Cloudy
2:04 AM 46.4 °F 46.4 °F 100% 30.12 in 0.2 mi Calm Calm - N/A Fog Fog
2:23 AM 46.4 °F 46.4 °F 100% 30.12 in 0.8 mi Calm Calm - N/A   Overcast
2:43 AM 46.4 °F 46.4 °F 100% 30.12 in 0.8 mi Calm Calm - N/A   Overcast
3:04 AM 46.4 °F 46.4 °F 100% 30.13 in 0.2 mi Calm Calm - N/A Fog Fog
3:23 AM 44.6 °F 44.6 °F 100% 30.13 in 10.0 mi Calm Calm - N/A   Mostly Cloudy
3:43 AM 44.6 °F 44.6 °F 100% 30.13 in 10.0 mi Calm Calm - N/A   Scattered Clouds
4:04 AM 44.6 °F 44.6 °F 100% 30.13 in 1.5 mi Calm Calm - N/A   Mostly Cloudy
4:23 AM 44.6 °F 44.6 °F 100% 30.13 in 10.0 mi Calm Calm - N/A   Clear
4:43 AM 44.6 °F 44.6 °F 100% 30.14 in 7.0 mi Calm Calm - N/A   Clear
5:03 AM 44.6 °F 44.6 °F 100% 30.14 in 7.0 mi Calm Calm - N/A   Scattered Clouds
5:24 AM 44.6 °F 44.6 °F 100% 30.13 in 1.2 mi Calm Calm - N/A   Mostly Cloudy
5:44 AM 44.6 °F 44.6 °F 100% 30.13 in 0.5 mi Calm Calm - N/A Fog Fog
6:04 AM 44.6 °F 44.6 °F 100% 30.12 in 2.0 mi Calm Calm - N/A   Overcast
6:23 AM 42.8 °F 42.8 °F 100% 30.11 in 1.5 mi Calm Calm - N/A   Mostly Cloudy
6:44 AM 44.6 °F 44.6 °F 100% 30.11 in 10.0 mi Calm Calm - N/A   Scattered Clouds
7:04 AM 44.6 °F 44.6 °F 100% 30.11 in 10.0 mi Calm Calm - N/A   Clear
7:24 AM 46.4 °F 46.4 °F 100% 30.11 in 10.0 mi Calm Calm - N/A   Clear
7:43 AM 44.6 °F 44.6 °F 100% 30.10 in 10.0 mi Calm Calm - N/A   Clear
8:04 AM 50.0 °F 50.0 °F 100% 30.10 in 10.0 mi Calm Calm - N/A   Clear
8:23 AM 53.6 °F 53.6 °F 100% 30.10 in 10.0 mi Calm Calm - N/A   Clear
8:44 AM 55.4 °F 55.4 °F 100% 30.08 in 10.0 mi Calm Calm - N/A   Clear
9:03 AM 57.2 °F 57.2 °F 100% 30.07 in 10.0 mi Calm Calm - N/A   Clear
9:24 AM 59.0 °F 59.0 °F 100% 30.07 in 10.0 mi Calm Calm - N/A   Clear
9:44 AM 62.6 °F 60.8 °F 94% 30.07 in 10.0 mi SSE 4.6 mph - N/A   Clear
10:04 AM 64.4 °F 62.6 °F 94% 30.08 in 10.0 mi Calm Calm - N/A   Clear
10:24 AM 68.0 °F 62.6 °F 83% 30.07 in 10.0 mi SSE 3.5 mph - N/A   Clear
10:44 AM 69.8 °F 62.6 °F 78% 30.06 in 10.0 mi SE 3.5 mph - N/A   Clear
11:04 AM 71.6 °F 62.6 °F 73% 30.04 in 10.0 mi South 4.6 mph - N/A   Clear
11:24 AM 73.4 °F 64.4 °F 73% 30.03 in 10.0 mi Calm Calm - N/A   Clear
11:44 AM 73.4 °F 64.4 °F 73% 30.05 in 10.0 mi SSE 8.1 mph - N/A   Clear
12:04 PM 75.2 °F 64.4 °F 69% 30.06 in 10.0 mi SE 3.5 mph - N/A   Clear
12:23 PM 75.2 °F 64.4 °F 69% 30.06 in 10.0 mi South 5.8 mph 16.1 mph N/A   Clear
12:43 PM 75.2 °F 64.4 °F 69% 30.06 in 10.0 mi South 6.9 mph 16.1 mph N/A   Clear
1:03 PM 75.2 °F 64.4 °F 69% 30.06 in 10.0 mi SE 5.8 mph - N/A   Scattered Clouds
1:23 PM 75.2 °F 64.4 °F 69% 30.04 in 10.0 mi SSE 6.9 mph - N/A   Scattered Clouds
1:44 PM 77.0 °F 64.4 °F 65% 30.03 in 10.0 mi SSE 5.8 mph - N/A   Mostly Cloudy
2:04 PM 77.0 °F 64.4 °F 65% 30.03 in 10.0 mi South 8.1 mph - N/A   Scattered Clouds
2:24 PM 75.2 °F 62.6 °F 65% 30.03 in 10.0 mi SSE 9.2 mph 16.1 mph N/A   Scattered Clouds
2:44 PM 75.2 °F 64.4 °F 69% 30.03 in 10.0 mi SSE 6.9 mph - N/A   Mostly Cloudy
3:04 PM 75.2 °F 64.4 °F 69% 30.02 in 10.0 mi SE 6.9 mph 16.1 mph N/A   Scattered Clouds
3:44 PM 75.2 °F 62.6 °F 65% 30.01 in 10.0 mi SSE 5.8 mph - N/A   Clear
4:04 PM 75.2 °F 64.4 °F 69% 30.02 in 10.0 mi SE 4.6 mph - N/A   Clear
4:24 PM 75.2 °F 62.6 °F 65% 30.02 in 10.0 mi SSE 6.9 mph - N/A   Clear
4:44 PM 75.2 °F 64.4 °F 69% 30.03 in 10.0 mi South 6.9 mph - N/A   Clear
5:04 PM 75.2 °F 64.4 °F 69% 30.02 in 10.0 mi SE 5.8 mph - N/A   Clear
5:43 PM 73.4 °F 62.6 °F 69% 30.00 in 10.0 mi SE 4.6 mph - N/A   Mostly Cloudy
6:24 PM 73.4 °F 64.4 °F 73% 29.98 in 10.0 mi SE 4.6 mph - N/A   Scattered Clouds
6:43 PM 69.8 °F 64.4 °F 83% 29.98 in 10.0 mi Calm Calm - N/A   Mostly Cloudy
7:03 PM 69.8 °F 64.4 °F 83% 29.98 in 10.0 mi Calm Calm - N/A   Mostly Cloudy
7:23 PM 66.2 °F 64.4 °F 94% 29.99 in 10.0 mi Calm Calm - N/A   Scattered Clouds
8:03 PM 66.2 °F 64.4 °F 94% 29.98 in 10.0 mi Calm Calm - N/A   Overcast
8:24 PM 66.2 °F 64.4 °F 94% 29.97 in 10.0 mi Calm Calm - N/A   Overcast
8:43 PM 66.2 °F 64.4 °F 94% 29.96 in 10.0 mi Calm Calm - N/A   Overcast
9:03 PM 68.0 °F 64.4 °F 88% 29.95 in 10.0 mi Calm Calm - N/A   Overcast
9:24 PM 66.2 °F 64.4 °F 94% 29.94 in 10.0 mi Calm Calm - N/A   Scattered Clouds
9:43 PM 64.4 °F 62.6 °F 94% 29.94 in 10.0 mi Calm Calm - N/A   Clear
10:24 PM 64.4 °F 62.6 °F 94% 29.95 in 10.0 mi SSE 5.8 mph - N/A   Clear
10:43 PM 64.4 °F 62.6 °F 94% 29.95 in 10.0 mi SSE 6.9 mph - N/A   Clear
11:04 PM 64.4 °F 62.6 °F 94% 29.95 in 10.0 mi SSE 8.1 mph - N/A   Clear
11:24 PM 64.4 °F 62.6 °F 94% 29.94 in 10.0 mi SSE 4.6 mph - N/A   Clear
11:44 PM 64.4 °F 62.6 °F 94% 29.93 in 10.0 mi SSE 5.8 mph - N/A   Clear